Content
SEND FEEDBACK

Daily
Averages
Monthly
Summary
United Kingdom

LONDON, ENGLAND


Home > Europe > United Kingdom > England
Elevation: 203 feet     Latitude: 51 09N     Longitude: 000 11W

WEATHER
 
SELECT A DAY
Number of Records: 297,333;   Date Range: 7/1/96 - 10/24/14
 
SHARE

PRINT THIS DATA

[ ← Previous Day ]
WEATHER ALMANAC - AUGUST 21, 2013
[ Next Day → ]
[ °C ]   °F
Weather ElementAverageHighLow
Temperature63.6 °F75.2 °F (1:50 pm)50 °F (5:20 am)
Dewpoint52.2 °F57.2 °F (9:20 am)48.2 °F (3:50 am)
Humidity69 %94 % (2:50 am)44 % (1:50 pm)
Barometer30.23 in30.33 in (12:50 am)30.15 in (10:20 pm)
Wind Speed4 mph9.2 mph (4:50 pm)
Weather ElementAverage
Visibility6.2 mi
Wind DirectionESE (121.9 °)

Weather ElementTotal
Precipitation---
Heating Degree Days2.4 (Base 65)
Growing Degree Days12.6 (Base 50)
Averaged from 47 records on August 21, 2013
WEATHER CONDITIONS BREAKOUT
WIND DIRECTION BREAKOUT
WEATHER BY HOUR - AUGUST 21, 2013
[ °C ]   °F
Local TimeTemperatureDewpointHumidityBarometerVisibilityWind DirectionWind SpeedGust SpeedPrecipitationEventsConditions
12:50 AM55.4 °F51.8 °F88 %30.33 inCalmClear
1:20 AM55.4 °F50.0 °F82 %30.30 inCalmClear
1:50 AM53.6 °F50.0 °F88 %30.30 inCalmClear
2:20 AM53.6 °F50.0 °F88 %30.30 inCalmClear
2:50 AM51.8 °F50.0 °F94 %30.30 inCalmClear
3:20 AM51.8 °F50.0 °F94 %30.30 inCalmClear
3:50 AM51.8 °F48.2 °F88 %30.30 inWest (260°)2.3 mphClear
4:20 AM51.8 °F50.0 °F94 %30.30 inCalmClear
4:50 AM51.8 °F48.2 °F88 %30.30 inVariable2.3 mphClear
5:20 AM50.0 °F48.2 °F94 %30.27 inVariable2.3 mphClear
5:50 AM50.0 °F48.2 °F94 %30.27 inCalmClear
6:20 AM50.0 °F48.2 °F94 %30.27 inCalmClear
6:50 AM50.0 °F48.2 °F94 %30.27 inCalmClear
7:20 AM53.6 °F51.8 °F94 %30.27 inCalmClear
7:50 AM57.2 °F51.8 °F82 %30.27 in6.2 miCalmScattered Clouds
8:20 AM57.2 °F51.8 °F82 %30.27 in6.2 miVariable2.3 mphPartly Cloudy
8:50 AM60.8 °F55.4 °F82 %30.27 inVariable3.5 mphClear
9:20 AM64.4 °F57.2 °F77 %30.27 inSSW (210°)4.6 mphClear
9:50 AM66.2 °F55.4 °F68 %30.27 in6.2 miSSW (200°)5.8 mphPartly Cloudy
10:20 AM66.2 °F53.6 °F64 %30.27 in6.2 miWSW (240°)6.9 mphPartly Cloudy
10:50 AM68.0 °F51.8 °F56 %30.27 in6.2 miSW (230°)5.8 mphPartly Cloudy
11:20 AM69.8 °F51.8 °F53 %30.24 in6.2 miSW (220°)5.8 mphPartly Cloudy
11:50 AM69.8 °F51.8 °F53 %30.24 inVariable5.8 mphClear
12:20 PM71.6 °F53.6 °F53 %30.24 inWSW (250°)5.8 mphClear
12:50 PM73.4 °F53.6 °F50 %30.24 inSW (220°)8.1 mphClear
1:20 PM73.4 °F51.8 °F47 %30.24 inSW (230°)8.1 mphClear
1:50 PM75.2 °F51.8 °F44 %30.21 inVariable6.9 mphClear
2:20 PM75.2 °F51.8 °F44 %30.21 inSW (220°)6.9 mphClear
2:50 PM73.4 °F55.4 °F53 %30.21 inSW (230°)6.9 mphClear
3:20 PM75.2 °F53.6 °F47 %30.21 inSouth (180°)6.9 mphClear
3:50 PM75.2 °F51.8 °F44 %30.18 inSSW (210°)8.1 mphClear
4:20 PM75.2 °F53.6 °F47 %30.18 inSW (220°)5.8 mphClear
4:50 PM75.2 °F53.6 °F47 %30.18 inSW (230°)9.2 mphClear
5:20 PM73.4 °F53.6 °F50 %30.18 inSW (230°)9.2 mphClear
5:50 PM71.6 °F53.6 °F53 %30.18 inSW (220°)8.1 mphClear
6:20 PM71.6 °F53.6 °F53 %30.18 inSouth (190°)8.1 mphClear
6:50 PM69.8 °F53.6 °F56 %30.18 inSSW (210°)6.9 mphClear
7:20 PM69.8 °F53.6 °F56 %30.18 inSSW (200°)5.8 mphClear
7:50 PM68.0 °F53.6 °F60 %30.18 inSSW (200°)5.8 mphClear
8:20 PM66.2 °F53.6 °F64 %30.18 inSSW (210°)4.6 mphClear
8:50 PM66.2 °F53.6 °F64 %30.18 inSSW (210°)4.6 mphClear
9:20 PM64.4 °F53.6 °F68 %30.18 inWSW (240°)3.5 mphClear
9:50 PM64.4 °F53.6 °F68 %30.18 inSW (230°)3.5 mphClear
10:20 PM64.4 °F53.6 °F68 %30.15 inVariable2.3 mphClear
10:50 PM62.6 °F53.6 °F72 %30.18 inWSW (240°)3.5 mphClear
11:20 PM62.6 °F53.6 °F72 %30.15 inVariable2.3 mphClear
11:50 PM62.6 °F53.6 °F72 %30.15 inCalmClear
Hourly data recorded from EGKK, located miles away from London, England







STORIES FROM OUR PARTNERS